VKG742 ESSA-LEPA

Flight info

Callsign VKG742
Flight time N/A
Altitude 40000
Route NOSLI6G NOSLI N850 ABAMA DCT MAKEL DCT TOLGI DCT BOMBI DCT GIGET DCT ABUKA DCT KRH DCT NATOR/N0477F410 DCT LUTIX DCT BENOT DCT NEMOS DCT GEVEA DCT INCUS DCT BALSI DCT RETNO DCT TUPOX DCT MTG DCT DIVKO DCT VATIR N852 VERSO L129 LUNIK LUNIK4M
Aircraft A339/H-SDE1E2E3GHIJ1J3J4J5RWXYZ/LB2D1G1

Departure

Time 2026-05-07 08:38
Airport Stockholm-Arlanda Airport (ESSA)

Arrival

Time N/A
Airport Palma de Mallorca Airport (LEPA)
Time Latitude Longitude Altitude Speed Heading
2026-05-07 08:18 59.65334 17.92894 121 ft 0 kts 101°
2026-05-07 08:27 59.65335 17.92888 121 ft 2 kts 101°
2026-05-07 08:27 59.65337 17.92859 121 ft 2 kts 101°
2026-05-07 08:27 59.65340 17.92830 120 ft 2 kts 101°
2026-05-07 08:27 59.65342 17.92811 120 ft 1 kts 101°
2026-05-07 08:28 59.65342 17.92782 119 ft 2 kts 63°
2026-05-07 08:28 59.65333 17.92759 119 ft 2 kts 28°
2026-05-07 08:28 59.65318 17.92751 119 ft 2 kts 353°
2026-05-07 08:28 59.65309 17.92756 119 ft 0 kts 331°
2026-05-07 08:29 59.65304 17.92762 119 ft 0 kts 330°
2026-05-07 08:29 59.65304 17.92761 119 ft 0 kts 330°
2026-05-07 08:32 59.65306 17.92760 119 ft 1 kts 330°
2026-05-07 08:32 59.65337 17.92725 118 ft 8 kts 331°
2026-05-07 08:32 59.65401 17.92656 117 ft 12 kts 332°
2026-05-07 08:32 59.65479 17.92575 117 ft 13 kts 333°
2026-05-07 08:33 59.65563 17.92510 118 ft 12 kts 345°
2026-05-07 08:33 59.65647 17.92468 120 ft 11 kts 346°
2026-05-07 08:33 59.65723 17.92431 123 ft 10 kts 346°
2026-05-07 08:33 59.65796 17.92431 124 ft 10 kts
2026-05-07 08:34 59.65871 17.92457 125 ft 11 kts 10°
2026-05-07 08:34 59.65958 17.92489 126 ft 13 kts 10°
2026-05-07 08:34 59.66053 17.92524 129 ft 13 kts 11°
2026-05-07 08:34 59.66142 17.92556 134 ft 12 kts 11°
2026-05-07 08:35 59.66220 17.92584 136 ft 10 kts 10°
2026-05-07 08:35 59.66292 17.92610 138 ft 10 kts 10°
2026-05-07 08:35 59.66359 17.92634 141 ft 8 kts 11°
2026-05-07 08:35 59.66414 17.92653 143 ft 7 kts
2026-05-07 08:36 59.66468 17.92645 145 ft 8 kts 346°
2026-05-07 08:36 59.66528 17.92606 146 ft 10 kts 341°
2026-05-07 08:36 59.66598 17.92550 146 ft 11 kts 324°
2026-05-07 08:36 59.66618 17.92412 144 ft 8 kts 257°
2026-05-07 08:37 59.66564 17.92350 142 ft 10 kts 189°
2026-05-07 08:37 59.66420 17.92298 138 ft 45 kts 191°
2026-05-07 08:37 59.65896 17.92107 128 ft 106 kts 190°
2026-05-07 08:37 59.65007 17.91786 117 ft 155 kts 191°
2026-05-07 08:38 59.63836 17.91366 276 ft 181 kts 190°
2026-05-07 08:38 59.62630 17.90931 958 ft 174 kts 190°
2026-05-07 08:38 59.61485 17.90355 1620 ft 172 kts 208°
2026-05-07 08:38 59.60712 17.88574 2093 ft 183 kts 245°
2026-05-07 08:39 59.60155 17.86189 2429 ft 200 kts 240°
2026-05-07 08:39 59.59428 17.83746 2795 ft 217 kts 236°
2026-05-07 08:39 59.58602 17.81123 3214 ft 233 kts 240°
2026-05-07 08:39 59.57819 17.78237 3669 ft 249 kts 242°
2026-05-07 08:40 59.56941 17.75216 4179 ft 261 kts 231°
2026-05-07 08:40 59.55600 17.72843 4923 ft 263 kts 211°
2026-05-07 08:40 59.53995 17.71181 5696 ft 265 kts 207°
2026-05-07 08:40 59.52349 17.69580 6402 ft 268 kts 208°
2026-05-07 08:41 59.50684 17.67966 7095 ft 271 kts 208°
2026-05-07 08:41 59.48982 17.66309 7802 ft 274 kts 208°
2026-05-07 08:41 59.47284 17.64648 8499 ft 276 kts 209°
2026-05-07 08:41 59.45578 17.62978 9222 ft 277 kts 209°
2026-05-07 08:42 59.43864 17.61299 9921 ft 279 kts 210°
2026-05-07 08:42 59.42106 17.59577 10530 ft 285 kts 210°
2026-05-07 08:42 59.40298 17.57802 10906 ft 299 kts 210°
2026-05-07 08:42 59.38399 17.55936 11195 ft 315 kts 210°
2026-05-07 08:43 59.36402 17.53979 11485 ft 331 kts 210°
2026-05-07 08:43 59.34302 17.51926 11769 ft 346 kts 210°
2026-05-07 08:43 59.32105 17.49785 12080 ft 361 kts 210°
2026-05-07 08:43 59.29851 17.47595 12636 ft 367 kts 210°
2026-05-07 08:44 59.27586 17.45402 13327 ft 369 kts 210°
2026-05-07 08:44 59.25270 17.43160 14016 ft 371 kts 210°
2026-05-07 08:44 59.22965 17.40928 14668 ft 374 kts 210°
2026-05-07 08:44 59.20647 17.38685 15306 ft 377 kts 210°
2026-05-07 08:45 59.18302 17.36420 15946 ft 380 kts 210°
2026-05-07 08:45 59.15935 17.34140 16577 ft 383 kts 209°
2026-05-07 08:45 59.13554 17.31848 17216 ft 386 kts 209°
2026-05-07 08:45 59.11154 17.29542 17828 ft 389 kts 210°
2026-05-07 08:46 59.08754 17.27053 18471 ft 390 kts 213°
2026-05-07 08:46 59.06485 17.24228 19070 ft 391 kts 218°
2026-05-07 08:46 59.04324 17.21043 19650 ft 392 kts 222°
2026-05-07 08:46 59.02223 17.17659 20249 ft 394 kts 222°
2026-05-07 08:47 59.00121 17.14272 20813 ft 397 kts 222°
2026-05-07 08:47 58.98004 17.10861 21358 ft 399 kts 223°
2026-05-07 08:47 58.95871 17.07431 21913 ft 401 kts 222°
2026-05-07 08:47 58.93730 17.03995 22442 ft 403 kts 222°
2026-05-07 08:48 58.91582 17.00553 22957 ft 405 kts 223°
2026-05-07 08:48 58.89423 16.97098 23464 ft 407 kts 223°
2026-05-07 08:48 58.87220 16.93582 23935 ft 409 kts 223°
2026-05-07 08:48 58.85028 16.90088 24394 ft 411 kts 223°
2026-05-07 08:49 58.82820 16.86575 24770 ft 415 kts 223°
2026-05-07 08:49 58.80592 16.83032 25145 ft 419 kts 223°
2026-05-07 08:49 58.78347 16.79472 25535 ft 422 kts 223°
2026-05-07 08:49 58.76088 16.75896 25945 ft 424 kts 222°
2026-05-07 08:50 58.73820 16.72314 26358 ft 425 kts 222°
2026-05-07 08:50 58.71534 16.68710 26721 ft 428 kts 222°
2026-05-07 08:50 58.69231 16.65084 27069 ft 430 kts 222°
2026-05-07 08:50 58.66917 16.61449 27430 ft 432 kts 223°
2026-05-07 08:51 58.64598 16.57813 27769 ft 435 kts 222°
2026-05-07 08:51 58.62267 16.54162 28129 ft 436 kts 222°
2026-05-07 08:51 58.59919 16.50493 28462 ft 438 kts 223°
2026-05-07 08:51 58.57568 16.46819 28783 ft 440 kts 223°
2026-05-07 08:52 58.55200 16.43128 29238 ft 438 kts 222°
2026-05-07 08:52 58.52853 16.39482 29750 ft 436 kts 222°
2026-05-07 08:52 58.50516 16.35854 30228 ft 434 kts 222°
2026-05-07 08:52 58.48191 16.32252 30668 ft 433 kts 221°
2026-05-07 08:53 58.45871 16.28665 31068 ft 432 kts 222°
2026-05-07 08:53 58.43547 16.25077 31437 ft 431 kts 221°
2026-05-07 08:53 58.41227 16.21498 31792 ft 431 kts 221°
2026-05-07 08:53 58.38888 16.17899 32158 ft 430 kts 221°
2026-05-07 08:54 58.36602 16.14387 32503 ft 429 kts 221°
2026-05-07 08:54 58.34290 16.10841 32842 ft 429 kts 221°
2026-05-07 08:54 58.31953 16.07263 33140 ft 428 kts 221°
2026-05-07 08:54 58.29644 16.03735 33416 ft 428 kts 221°
2026-05-07 08:55 58.27362 16.00256 33670 ft 427 kts 221°
2026-05-07 08:55 58.25048 15.96732 33940 ft 427 kts 221°
2026-05-07 08:55 58.22741 15.93225 34194 ft 426 kts 221°
2026-05-07 08:55 58.20429 15.89718 34422 ft 426 kts 221°
2026-05-07 08:56 58.18123 15.86226 34648 ft 426 kts 221°
2026-05-07 08:56 58.15821 15.82744 34869 ft 426 kts 221°
2026-05-07 08:56 58.13520 15.79273 35060 ft 426 kts 221°
2026-05-07 08:56 58.11211 15.75793 35229 ft 427 kts 221°
2026-05-07 08:57 58.08905 15.72324 35405 ft 427 kts 221°
2026-05-07 08:57 58.06582 15.68838 35589 ft 428 kts 221°
2026-05-07 08:57 58.04265 15.65366 35761 ft 428 kts 221°
2026-05-07 08:57 58.01943 15.61893 35937 ft 428 kts 221°
2026-05-07 08:58 57.99593 15.58468 36106 ft 429 kts 219°
2026-05-07 08:58 57.97132 15.55227 36276 ft 430 kts 217°
2026-05-07 08:58 57.94617 15.52231 36422 ft 432 kts 215°
2026-05-07 08:58 57.92084 15.49237 36559 ft 432 kts 216°
2026-05-07 08:59 57.89565 15.46242 36705 ft 433 kts 216°
2026-05-07 08:59 57.87035 15.43240 36855 ft 434 kts 216°
2026-05-07 08:59 57.84462 15.40195 37015 ft 434 kts 216°
2026-05-07 08:59 57.81921 15.37197 37174 ft 435 kts 216°
2026-05-07 09:00 57.79372 15.34197 37340 ft 435 kts 215°
2026-05-07 09:00 57.76832 15.31216 37495 ft 435 kts 214°
2026-05-07 09:00 57.74254 15.28195 37638 ft 436 kts 214°
2026-05-07 09:00 57.71696 15.25204 37775 ft 436 kts 214°
2026-05-07 09:01 57.69138 15.22218 37902 ft 437 kts 214°
2026-05-07 09:01 57.66575 15.19232 38035 ft 438 kts 214°
2026-05-07 09:01 57.63979 15.16212 38175 ft 438 kts 214°
2026-05-07 09:01 57.61412 15.13231 38316 ft 439 kts 214°
2026-05-07 09:02 57.58843 15.10252 38448 ft 439 kts 214°
2026-05-07 09:02 57.56271 15.07276 38590 ft 439 kts 214°
2026-05-07 09:02 57.53661 15.04259 38751 ft 440 kts 214°
2026-05-07 09:02 57.51089 15.01293 38922 ft 440 kts 214°
2026-05-07 09:03 57.48477 14.98286 39100 ft 439 kts 214°
2026-05-07 09:03 57.45901 14.95323 39261 ft 439 kts 214°
2026-05-07 09:03 57.43320 14.92362 39413 ft 439 kts 214°
2026-05-07 09:03 57.40749 14.89415 39562 ft 439 kts 214°
2026-05-07 09:04 57.38144 14.86435 39699 ft 439 kts 214°
2026-05-07 09:04 57.35573 14.83500 39829 ft 439 kts 214°
2026-05-07 09:04 57.32959 14.80521 39966 ft 439 kts 214°
2026-05-07 09:04 57.30368 14.77572 40012 ft 441 kts 214°
2026-05-07 09:05 57.25185 14.71691 40013 ft 441 kts 214°
2026-05-07 09:05 57.19978 14.65801 40014 ft 441 kts 214°
2026-05-07 09:06 57.14726 14.59877 40020 ft 442 kts 214°
2026-05-07 09:06 57.09508 14.54014 40022 ft 442 kts 214°
2026-05-07 09:07 57.04286 14.48165 40023 ft 442 kts 214°
2026-05-07 09:07 56.99047 14.42318 40021 ft 443 kts 214°
2026-05-07 09:08 56.93799 14.36481 40030 ft 443 kts 214°
2026-05-07 09:08 56.88549 14.30658 40026 ft 443 kts 213°
2026-05-07 09:09 56.83269 14.24822 40025 ft 444 kts 213°
2026-05-07 09:09 56.78038 14.19060 40022 ft 444 kts 213°
2026-05-07 09:10 56.72764 14.13270 40022 ft 444 kts 213°
2026-05-07 09:10 56.67490 14.07502 40026 ft 444 kts 213°
2026-05-07 09:11 56.62222 14.01756 40022 ft 444 kts 213°
2026-05-07 09:11 56.56939 13.96013 40018 ft 444 kts 213°
2026-05-07 09:12 56.51650 13.90282 40014 ft 444 kts 213°
2026-05-07 09:12 56.46367 13.84575 40011 ft 445 kts 213°
2026-05-07 09:13 56.41098 13.78903 40016 ft 445 kts 213°
2026-05-07 09:13 56.35799 13.73218 40016 ft 444 kts 213°
2026-05-07 09:14 56.30505 13.67559 40017 ft 444 kts 213°
2026-05-07 09:14 56.25194 13.61898 40022 ft 445 kts 213°
2026-05-07 09:15 56.19911 13.56285 40027 ft 445 kts 213°
2026-05-07 09:15 56.14576 13.50637 40030 ft 446 kts 213°
2026-05-07 09:16 56.09262 13.45028 40032 ft 446 kts 213°
2026-05-07 09:16 56.03941 13.39429 40033 ft 446 kts 213°
2026-05-07 09:17 55.99039 13.34285 40034 ft 446 kts 212°
2026-05-07 09:17 55.93700 13.28704 40033 ft 446 kts 212°
2026-05-07 09:18 55.88374 13.23152 40029 ft 445 kts 212°
2026-05-07 09:18 55.83034 13.17606 40029 ft 446 kts 212°
2026-05-07 09:19 55.77695 13.12077 40028 ft 446 kts 212°
2026-05-07 09:19 55.72345 13.06555 40029 ft 447 kts 212°
2026-05-07 09:20 55.66990 13.01045 40029 ft 447 kts 212°
2026-05-07 09:20 55.61622 12.95538 40037 ft 447 kts 212°
2026-05-07 09:21 55.56269 12.90065 40040 ft 446 kts 211°
2026-05-07 09:21 55.50942 12.84635 40041 ft 446 kts 211°
2026-05-07 09:22 55.45556 12.79166 40041 ft 447 kts 211°
2026-05-07 09:22 55.40198 12.73739 40041 ft 447 kts 211°
2026-05-07 09:23 55.34826 12.68316 40042 ft 447 kts 211°
2026-05-07 09:23 55.29461 12.62918 40044 ft 447 kts 211°
2026-05-07 09:24 55.24088 12.57527 40046 ft 448 kts 211°
2026-05-07 09:24 55.18706 12.52145 40047 ft 448 kts 211°
2026-05-07 09:25 55.13320 12.46775 40048 ft 448 kts 211°
2026-05-07 09:25 55.07902 12.41391 40049 ft 448 kts 211°
2026-05-07 09:26 55.02512 12.36053 40050 ft 448 kts 211°
2026-05-07 09:26 54.97106 12.30716 40050 ft 448 kts 210°
2026-05-07 09:27 54.91696 12.25390 40051 ft 448 kts 210°
2026-05-07 09:28 54.83539 12.17389 40045 ft 450 kts 210°
2026-05-07 09:28 54.78104 12.12080 40044 ft 450 kts 210°
2026-05-07 09:29 54.72697 12.06813 40042 ft 450 kts 210°